Location: Brantley
(31.5822°N, 86.2569°W)
Time: 01:33:17
(UTC+00:00)

Vanguard 3 - Pass Details

Date: 25 February 2026
Orbit: 507 x 3205 km, 33.4° (Epoch: 10 March)

Event Time Altitude Azimuth Distance (km) Brightness Sun altitude
Rises 18:45:16 0° 240° (WSW) 7,131 12.4 48.0°
Reaches altitude 10° 18:50:17 10° 239° (WSW) 6,008 12.2 47.7°
Maximum altitude 19:08:18 72° 159° (SSE) 2,455 10.7 46.2°
Drops below altitude 10° 19:19:19 10° 77° (ENE) 3,885 10.4 45.1°
Sets 19:21:51 0° 75° (ENE) 4,580 10.7 44.9°
